Location: Juarros de Voltoya
(41.0310°N, 4.5192°W)
Time: 22:31:31
(UTC+00:00)

Daily predictions for brighter satellites

Satellite Brightness Start Highest point End
(mag) Time Altitude Azimuth Time Altitude Azimuth Time Altitude Azimuth
BREEZE-M DEB (TANK) 3.1 18:08:18 10° WNW 18:12:06 73° NNE 18:16:45 10° ESE
Cosmos 2297 Rocket 2.7 18:09:17 10° S 18:14:32 41° ESE 18:19:48 10° NE
Sich 1 Rocket 4.3 18:10:26 10° NNE 18:14:33 33° ENE 18:18:39 10° SE
Thor Agena Rocket 4.2 18:09:55 10° S 18:14:55 63° WSW 18:20:02 10° NNW
Tiangong -0.8 18:12:44 10° SW 18:15:34 30° SSE 18:18:24 10° E
GP-B 3.1 18:12:25 10° S 18:16:46 88° E 18:21:09 10° N
Cosmos 1025 Rocket 3.1 18:13:13 10° S 18:17:24 54° E 18:21:38 10° NNE
Resurs 01 Rocket 2.9 18:18:04 10° ESE 18:21:18 21° ENE 18:24:33 10° NNE
SKYMED 2 3.5 18:17:27 10° NNE 18:21:48 71° ESE 18:26:07 10° S
Cosmos 1356 Rocket 3.2 18:19:40 10° N 18:23:36 65° E 18:27:33 10° SSE
SJ-6F 4.3 18:19:42 10° SSE 18:23:39 85° ENE 18:27:35 10° NNW
Resurs 1-3 3.8 18:19:50 10° SSE 18:23:58 48° ENE 18:28:06 10° N
USA 290 4.4 18:24:27 10° SW 18:27:12 27° WNW 18:29:58 10° N
SPOT 1/Viking Rocket 3.8 18:31:47 10° S 18:36:54 76° WSW 18:42:02 10° NNW
Helios 1A Rocket 4.0 18:39:28 15° E 18:39:53 15° E 18:41:54 10° SE
Cosmos 1674 Rocket 4.1 18:36:17 10° SSW 18:40:36 62° W 18:44:59 10° N
Cosmos 1447 Rocket 4.4 18:34:47 10° S 18:40:50 67° E 18:46:55 10° NNE
Lacrosse 5 rocket 3.6 18:40:18 10° NW 18:41:20 11° NNW 18:42:24 10° N
Cosmos 2263 Rocket 3.6 18:41:21 10° SE 18:44:55 17° E 18:46:41 15° ENE
Cosmos 1980 3.9 18:41:23 10° NNW 18:46:51 47° ENE 18:52:15 10° SE
COSMOS 2428 2.9 18:42:10 10° NNW 18:47:54 78° WSW 18:53:36 10° SSE
SJ-6B 3.7 18:46:43 15° ESE 18:48:22 21° ENE 18:51:02 10° NNE
Cosmos 2237 Rocket 2.4 18:46:45 10° NNW 18:52:15 48° ENE 18:57:43 10° SE
CARTOSAT-1 3.5 18:48:40 10° SSE 18:52:46 56° ENE 18:56:54 10° N
Delta 2 Rocket 4.0 18:50:14 10° WSW 18:52:56 29° S 18:54:42 17° SE
SJ-7 4.0 18:52:41 10° SSE 18:56:22 75° ENE 19:00:03 10° N
Cosmos 2285 Rocket 4.0 18:50:34 10° NNW 18:56:59 70° ENE 19:03:19 10° SSE
Cosmos 44 Rocket 3.4 18:52:52 10° SSW 18:57:38 59° ESE 19:02:15 12° NE
BREEZE-M DEB (TANK) 4.2 19:04:52 10° NW 19:08:46 57° NNE 19:16:43 19° ESE
Cosmos 1513 Rocket 4.5 19:03:31 10° N 19:09:47 65° E 19:16:06 10° SSE
Aureole 3 Rocket 2.5 19:07:03 10° N 19:10:47 79° W 19:13:52 10° S
NOSS 0 Rocket 4.2 19:04:49 10° NNW 19:11:03 71° WSW 19:17:13 10° SSE
USA 306 2.7 19:10:42 10° WNW 19:12:21 31° W 19:12:21 31° W
Cosmos 2227 Rocket 2.3 19:08:13 10° S 19:13:39 53° ESE 19:18:49 12° NNE
Cosmos 1570 Rocket 4.1 19:11:10 10° SSW 19:16:27 78° WNW 19:21:44 10° NNE
SL-16 R/B 3.3 19:12:40 10° N 19:17:07 23° NE 19:17:18 23° NE
SL-19 R/B 4.5 19:11:35 10° SSE 19:17:49 88° W 19:23:48 10° NNW
Cosmos 1975 Rocket 2.9 19:15:28 10° S 19:19:46 61° E 19:24:03 10° NNE
YAOGAN 1 4.0 19:16:46 10° SSW 19:20:45 39° W 19:24:46 10° NNW
ATLAS 5 CENTAUR R/B 4.5 19:17:05 10° WNW 19:20:47 22° WSW 19:25:03 10° SSW
Cosmos 1125 Rocket 4.0 19:16:29 10° NNW 19:21:37 61° WSW 19:26:42 10° S
YAOGAN 3 4.5 19:17:49 10° S 19:22:01 83° WSW 19:26:15 10° NNW
Cosmos 1455 Rocket 2.9 19:18:11 10° N 19:22:30 88° W 19:26:48 10° S
SeaSat 1 4.4 19:20:48 10° S 19:25:05 31° WSW 19:29:24 10° NW
Cosmos 1346 Rocket 3.7 19:23:53 10° S 19:25:52 29° SSE 19:25:52 29° SSE
Cosmos 1602 4.0 19:25:01 10° S 19:26:44 35° S 19:26:44 35° S
CZ-4C R/B 4.0 19:26:11 10° W 19:29:27 19° NNW 19:33:17 10° NNE
PSLV R/B 4.4 19:26:39 10° S 19:30:39 49° W 19:34:40 10° NNW
DNEPR-1 R/B 4.5 19:28:36 10° NNW 19:33:22 42° NE 19:34:10 40° ENE
COSMO-SKYMED 1 4.4 19:30:20 10° N 19:33:57 30° WNW 19:37:31 10° SW
Gbstr 26 Del rocket 4.3 19:28:08 10° SSW 19:34:38 56° SE 19:37:44 34° ENE
Cosmos 2228 2.8 19:31:14 10° N 19:35:25 70° E 19:37:09 34° SSE
Cosmos 2208 Rocket 4.2 19:31:06 10° SSW 19:36:17 73° WNW 19:41:36 10° NNE
SPOT 5 3.3 19:39:23 41° NE 19:39:23 41° NE 19:43:26 10° N
Cosmos 1464 Rocket 3.9 19:32:54 10° N 19:39:17 76° E 19:45:32 10° SSE
Atlas Centaur 2 3.7 19:37:18 10° WSW 19:44:00 33° S 19:46:52 24° SSE
CSL-04 Debris 4.2 19:49:11 54° ENE 19:49:16 54° ENE 19:54:33 10° N
Tiangong -0.5 19:49:08 10° W 19:51:08 35° W 19:51:08 35° W
CSL-04 Rocket 3.5 19:53:07 62° E 19:53:21 63° ENE 19:58:34 10° N
Resurs 01 Rocket 3.1 19:53:21 10° SSW 19:57:24 36° W 20:01:29 10° NNW
Cosmos 2297 Rocket 4.0 19:53:45 10° WSW 19:58:39 30° NW 20:03:35 10° N
Cosmos 2150 Rocket 4.1 20:01:21 10° NNW 20:06:29 72° WSW 20:07:43 50° S
Cosmos 2298 Rocket 4.1 20:03:39 10° NNW 20:08:56 73° WSW 20:10:04 54° S
Cosmos 2219 4.5 20:06:18 10° S 20:08:56 28° S 20:08:56 28° S
NOSS 3-4 (A) 4.1 20:15:00 10° NW 20:22:00 71° WSW 20:25:23 38° SSE
NOSS 3-4 (C) 4.1 20:15:16 10° NW 20:22:18 71° WSW 20:25:34 39° SSE
Cosmos 2263 Rocket 2.5 20:22:33 10° SSW 20:28:10 65° WNW 20:28:28 64° NW
Cosmos 2237 Rocket 4.3 20:31:29 10° NW 20:35:56 24° WSW 20:40:21 10° SSW
Cosmos 2344 3.8 20:32:27 10° SW 20:40:24 62° NW 20:43:00 40° N
BREEZE-M DEB (TANK) 4.3 20:52:28 10° WSW 20:57:16 69° NNW 20:58:26 62° NNE
Cosmos 2227 Rocket 4.2 20:53:29 10° WSW 20:57:59 24° NW 21:00:43 17° NNW
SL-16 R/B 3.6 20:56:03 10° NNW 20:59:12 33° NW 20:59:12 33° NW
